This is the latest recevied weather packets stored in our database for station/object KA8DUX-2. If no packets are shown the sender has not sent any weather packets the latest 10 day(s).
| Time | Temp. | Humidity | Pressure | Rain* | Wind** | Luminosity | Snow |
|---|---|---|---|---|---|---|---|
| 1778264799 | 18.89° C | 26% | 1007.7 hPa | 0 mm | - | 525 W/m² | - |
| 1778264496 | 19.44° C | 25% | 1007.5 hPa | 0 mm | - | 568 W/m² | - |
| 1778264191 | 18.33° C | 27% | 1007.9 hPa | 0 mm | - | 619 W/m² | - |
| 1778263889 | 18.33° C | 28% | 1007.7 hPa | 0 mm | - | 637 W/m² | - |
| 1778263585 | 19.44° C | 29% | 1007.8 hPa | 0 mm | - | 599 W/m² | - |
| 1778263282 | 18.89° C | 29% | 1007.9 hPa | 0 mm | - | 679 W/m² | - |
| 1778262978 | 18.33° C | 32% | 1007.9 hPa | 0 mm | - | 599 W/m² | - |
| 1778262675 | 18.89° C | 29% | 1008.1 hPa | 0 mm | - | 617 W/m² | - |
| 1778262373 | 18.89° C | 29% | 1008.2 hPa | 0 mm | - | 571 W/m² | - |
| 1778262070 | 18.33° C | 30% | 1008.2 hPa | 0 mm | - | 623 W/m² | - |
| 1778261767 | 18.33° C | 30% | 1008.3 hPa | 0 mm | - | 598 W/m² | - |
| 1778261463 | 18.89° C | 29% | 1008.4 hPa | 0 mm | - | 630 W/m² | - |
| 1778261160 | 18.33° C | 30% | 1008.4 hPa | 0 mm | - | 665 W/m² | - |
| 1778260856 | 17.78° C | 30% | 1008.6 hPa | 0 mm | - | 616 W/m² | - |
| 1778260553 | 18.33° C | 30% | 1008.8 hPa | 0 mm | - | 664 W/m² | - |
| 1778260249 | 17.78° C | 31% | 1008.7 hPa | 0 mm | - | 685 W/m² | - |
| 1778259947 | 18.33° C | 31% | 1008.7 hPa | 0 mm | - | 716 W/m² | - |
| 1778259644 | 17.78° C | 30% | 1008.8 hPa | 0 mm | - | 707 W/m² | - |
| 1778259341 | 17.22° C | 31% | 1009.1 hPa | 0 mm | - | 688 W/m² | - |
| 1778259038 | 17.78° C | 29% | 1009 hPa | 0 mm | - | 653 W/m² | - |
| 1778258734 | 16.67° C | 29% | 1009.2 hPa | 0 mm | - | 689 W/m² | - |
| 1778258431 | 17.22° C | 30% | 1009.1 hPa | 0 mm | - | 662 W/m² | - |
| 1778258129 | 17.22° C | 32% | 1009.3 hPa | 0 mm | - | 697 W/m² | - |
| 1778257825 | 17.22° C | 32% | 1009.4 hPa | 0 mm | - | 745 W/m² | - |
| 1778257522 | 17.22° C | 36% | 1009.5 hPa | 0 mm | - | 736 W/m² | - |
* Rain latest hour (hover to see other rain measurements)
** Current wind speed in m/s (hover to see current wind gust speed)